Location: *
(44.1392°N, 4.8079°E)
Time: 21:40:35
(UTC+00:00)

Genesis I - Pass Details

Date: 21 June 2021
Orbit: 476 x 543 km, 64.5° (Epoch: 01 August)

Event Time Altitude Azimuth Distance (km) Brightness Sun altitude
Rises 03:07:47 0° 327° (NNW) 2,692 7.0 -7.7°
Reaches altitude 10° 03:10:00 10° 332° (NNW) 1,804 6.2 -7.4°
Maximum altitude 03:14:01 58° 52° (NE) 637 4.1 -6.9°
Drops below altitude 10° 03:18:01 10° 132° (SE) 1,805 6.0 -6.4°
Sets 03:20:14 0° 136° (SE) 2,692 6.9 -6.1°
